Location: Unspecified
(0.0000°N, 0.0000°E)
Time: 00:35:03
(UTC+00:00)

OBJECT B - Visible Passes

Search period start: 13 June 2025 00:00
Search period end: 23 June 2025 00:00
Orbit: 492 x 500 km, 35.0° (Epoch: 12 June)

Date Brightness Start Highest point End Pass type
(mag) Time Alt. Az. Time Alt. Az. Time Alt. Az.
13 Jun ? 19:37:20 10° WSW 19:38:59 12° SW 19:39:32 12° SSW visible
14 Jun ? 19:13:49 10° SW 19:15:01 11° SW 19:16:13 10° SSW visible
15 Jun ? 05:19:37 12° SW 05:23:13 81° SE 05:27:04 10° NE visible
15 Jun ? 18:50:41 10° SW 18:51:02 10° SW 18:51:23 10° SSW visible
16 Jun ? 04:57:09 26° SW 04:59:13 90° ESE 05:03:04 10° NE visible
17 Jun ? 04:34:39 63° WSW 04:35:12 81° NW 04:39:03 10° NE visible
18 Jun ? 04:12:06 48° NNE 04:12:06 48° NNE 04:15:00 10° NE visible
19 Jun ? 03:49:30 21° NE 03:49:30 21° NE 03:50:56 10° NE visible
20 Jun ? 03:26:51 10° NE 03:26:51 10° NE 03:26:51 10° NE visible
